Wind_Speed
15 14 14 13 13 12 12 12 11 10 9 8 7 7 6 5 5 5 5 5 4 4 4 4 4 4 4 5 4 4 4 3 3 2 2 1 1 2 2 3 3 4 5
16 16 16 15 15 14 13 13 12 12 11 9 9 8 7 7 6 6 5 5 5 4 4 4 4 5 5 5 5 5 4 4 3 3 2 1 0 1 1 2 3 3 4
19 18 18 17 17 16 15 14 14 13 12 11 10 10 9 8 8 7 7 7 6 6 5 5 5 5 5 5 6 5 5 4 4 3 3 2 2 1 0 1 1 2 3
20 20 20 19 19 18 17 16 15 15 14 13 12 11 11 10 10 9 8 8 8 7 7 7 6 6 6 6 6 6 6 5 5 4 4 3 3 2 2 1 1 2 2
22 22 22 21 20 20 19 18 18 17 16 15 14 13 13 12 11 11 10 9 9 9 9 8 7 7 7 7 7 7 7 7 6 6 5 5 4 4 3 3 3 3 3
23 23 23 23 22 21 21 20 20 19 18 17 16 15 14 14 13 13 12 11 10 10 10 9 9 8 8 8 9 9 9 9 8 8 7 7 6 6 5 5 5 4 4
24 24 24 24 23 23 22 22 21 20 20 19 18 18 17 16 15 15 14 13 12 11 11 11 11 10 10 10 10 10 10 10 10 9 9 8 8 7 7 7 7 7 6
26 25 25 25 24 24 23 23 22 22 21 21 20 19 19 18 17 17 16 16 15 14 13 12 13 12 12 11 11 11 11 11 11 11 10 10 10 9 9 9 9 9 9
27 27 27 26 26 25 25 24 23 23 22 22 22 21 21 20 20 19 19 18 17 16 16 15 14 14 13 13 13 13 13 13 12 12 12 12 12 11 11 11 11 10 10
28 27 27 28 28 27 27 26 25 24 24 23 23 22 22 22 21 21 20 20 19 19 18 17 17 16 16 15 15 15 15 15 15 14 14 14 14 14 13 13 13 13 12
28 28 28 28 29 28 28 27 27 26 26 25 24 24 23 23 23 22 22 22 21 21 20 20 19 19 18 18 17 17 17 17 17 16 16 16 16 16 16 15 15 15 15
29 29 29 29 29 29 29 28 28 28 27 27 27 26 25 24 24 24 23 23 23 22 22 21 21 20 20 20 19 19 19 19 19 18 18 18 18 18 17 17 17 17 17
30 30 30 30 30 30 30 30 29 29 29 29 28 28 27 26 25 25 25 24 24 23 23 23 22 22 22 21 21 20 20 20 20 20 20 20 20 20 20 20 20 20 19
32 31 31 31 31 31 31 31 30 30 30 29 29 29 29 28 27 26 26 25 25 25 24 24 24 23 23 23 23 22 22 21 22 22 22 22 22 22 22 22 22 22 22
34 33 32 32 32 31 32 32 31 31 31 31 30 30 30 29 29 28 28 28 27 27 26 26 26 25 25 25 25 25 24 24 24 24 24 24 24 24 24 24 25 24 25
35 36 34 33 33 32 32 32 32 32 32 32 31 31 31 30 29 29 29 29 28 27 27 27 27 27 26 26 26 26 26 26 25 25 26 26 26 26 26 26 26 27 27
36 36 36 35 34 33 33 33 33 33 33 32 32 32 32 32 31 31 30 30 29 29 28 28 27 27 27 26 26 26 26 26 26 26 26 26 27 27 27 28 28 28 28
37 37 37 36 35 34 34 34 34 34 34 33 33 32 32 32 32 32 31 31 30 30 30 29 29 28 28 28 27 27 26 27 27 28 27 28 28 28 28 29 29 29 29
38 38 37 37 36 36 35 34 35 35 35 34 33 33 32 33 32 32 32 32 31 31 31 31 31 30 29 29 29 29 28 28 29 29 29 29 29 30 30 30 30 30 31
40 39 39 38 37 37 36 35 34 36 35 35 33 33 33 33 33 33 33 33 33 32 32 32 31 31 31 31 31 31 30 29 29 30 30 31 31 31 32 31 32 32 32
41 41 40 38 38 38 36 35 35 35 36 35 34 33 33 34 34 34 34 34 34 34 33 33 33 32 32 33 33 33 32 32 31 31 31 32 32 32 32 32 33 33 33
41 41 41 40 38 38 37 36 36 37 37 36 35 34 34 34 34 34 35 35 35 35 35 35 35 34 34 34 34 34 34 34 34 33 34 34 34 34 33 33 34 34 35
43 42 41 41 40 40 39 37 37 37 38 37 36 36 36 36 35 35 35 36 36 36 36 36 36 35 35 35 35 35 35 35 35 35 35 35 36 36 36 35 36 36 36
44 43 42 42 41 41 41 40 39 38 38 37 37 38 38 38 37 36 36 36 36 36 37 37 37 36 36 36 36 36 36 36 36 35 36 36 36 37 37 37 37 37 37
45 44 44 43 43 43 42 42 40 39 39 39 39 39 39 39 39 38 37 37 37 37 38 38 37 37 37 37 37 37 37 37 38 37 37 37 38 38 38 38 39 39 40
46 45 45 44 43 43 43 42 41 40 40 40 40 39 39 39 39 38 38 38 38 39 39 39 39 38 38 38 38 38 38 38 38 39 39 39 39 40 40 40 40 41 41
Wind_Direction
229 227 226 225 223 223 222 221 220 218 216 214 210 209 209 202 191 184 187 188 181 182 185 188 189 190 192 192 190 189 186 185 181 169 159 127 100 82 73 69 67 68 64
232 229 227 227 226 227 227 225 224 222 220 220 218 215 213 210 206 200 199 202 198 199 203 207 209 207 205 208 205 204 205 200 197 198 205 209 158 100 72 60 57 61 58
233 231 230 229 229 229 230 228 227 225 224 225 223 220 217 215 214 212 209 213 213 217 221 224 230 224 216 213 211 213 216 217 216 220 229 241 246 245 264 30 32 38 40
234 233 232 231 231 232 232 231 229 228 228 227 227 225 222 220 219 219 220 223 225 228 232 234 235 231 225 221 219 219 224 230 230 235 242 246 248 250 264 283 308 337 356
236 235 234 233 233 233 234 234 233 231 230 230 229 228 227 226 225 225 227 230 232 234 236 238 237 238 236 231 230 231 233 238 240 242 252 253 255 259 266 275 279 294 312
236 235 235 234 234 234 235 235 234 233 232 232 231 230 230 230 230 230 231 233 235 238 240 240 239 240 241 241 240 238 239 242 246 249 255 255 257 261 265 272 274 278 290
237 236 236 235 234 233 234 235 234 234 234 233 234 233 233 233 233 233 234 235 236 238 240 241 240 243 245 244 244 243 244 245 249 252 257 256 259 261 263 269 272 274 279
238 237 235 235 234 234 234 235 235 235 235 235 235 236 236 236 236 237 237 237 237 239 241 241 241 244 246 246 247 246 246 247 249 253 257 259 259 263 266 267 270 275 279
239 238 236 235 235 234 234 235 235 236 236 237 238 238 238 238 238 239 240 240 240 241 243 243 242 244 246 246 248 248 248 249 251 255 257 259 261 264 267 267 269 272 278
239 238 237 236 235 235 235 235 236 236 236 237 237 238 239 240 240 240 241 242 242 243 244 245 244 245 246 247 249 250 251 251 253 255 256 259 262 263 266 267 269 272 276
238 238 238 238 238 237 237 237 237 237 238 238 238 238 240 241 241 242 242 244 244 244 245 246 246 246 248 249 250 251 252 254 255 255 257 259 262 265 267 269 270 272 274
238 238 238 238 239 239 239 238 239 239 239 238 239 239 239 241 241 242 243 243 244 244 245 247 247 248 249 249 250 252 254 255 256 256 258 260 262 265 268 270 272 274 275
237 237 237 238 239 240 240 240 240 240 239 239 239 239 240 241 241 243 243 243 243 244 245 247 248 249 249 250 250 252 255 256 256 256 258 260 263 265 267 269 272 274 275
238 238 238 238 239 240 241 241 241 240 239 239 240 240 240 240 241 242 244 243 243 245 247 249 250 250 251 251 251 252 254 256 256 257 259 260 263 265 267 269 271 273 275
239 238 238 239 240 241 241 241 241 240 239 239 240 240 240 240 241 243 244 245 246 246 248 249 251 252 252 252 252 252 254 256 257 258 260 262 264 266 267 269 271 273 275
239 239 239 240 241 242 241 240 240 239 239 239 240 240 240 240 240 242 244 244 246 247 248 249 250 252 254 254 254 254 255 257 259 260 261 263 264 265 267 269 271 273 273
240 241 240 240 241 242 242 240 240 239 239 239 239 240 240 240 241 242 244 244 245 247 249 249 250 251 253 253 255 256 256 256 258 260 263 264 265 266 268 270 271 273 273
240 241 242 241 241 242 242 241 239 239 239 239 239 240 241 240 241 242 244 244 245 246 248 249 250 252 253 254 256 257 258 258 259 261 263 265 267 268 269 271 272 273 273
239 240 242 242 242 241 242 241 240 240 240 239 240 240 241 241 241 242 244 244 245 247 248 250 251 251 253 255 256 258 260 261 261 262 263 265 267 268 270 271 273 273 273
239 239 240 241 241 241 241 241 240 240 240 239 240 241 241 240 240 242 244 245 246 248 250 251 253 253 254 255 257 258 261 261 262 263 265 266 267 269 269 271 272 272 273
238 239 239 240 240 240 240 241 240 239 238 238 239 241 242 241 241 243 244 246 247 249 250 252 253 254 255 256 257 259 260 262 262 263 265 267 267 269 270 271 272 272 272
238 239 239 239 239 239 239 240 238 239 237 238 240 242 243 243 243 245 247 247 248 249 251 252 253 254 256 257 257 258 260 262 263 266 266 267 268 268 270 272 272 273 272
237 238 238 238 238 238 239 239 239 239 238 240 241 242 244 245 245 246 247 248 249 250 251 252 253 255 255 256 257 258 259 261 263 265 267 268 267 268 270 271 272 272 272
237 237 237 237 237 237 238 239 240 240 240 240 241 242 244 244 245 247 247 248 249 250 251 251 252 254 255 257 258 259 260 260 262 264 266 268 269 269 270 271 271 273 272
237 237 236 236 237 236 237 238 239 240 240 240 241 242 244 244 245 247 248 248 249 249 250 251 252 254 256 257 259 260 261 262 262 264 266 269 269 270 271 272 272 274 274
236 237 236 236 237 237 237 238 238 238 239 241 241 243 244 245 245 247 248 248 248 249 251 252 253 254 256 258 260 261 262 263 264 264 266 268 270 271 272 274 275 275 275
Height
5838 5839 5841 5842 5844 5845 5847 5848 5850 5851 5852 5854 5855 5856 5857 5858 5860 5861 5862 5863 5864 5865 5866 5868 5869 5869 5870 5871 5872 5873 5874 5875 5876 5877 5877 5878 5878 5878 5878 5878 5879 5879 5879
5835 5837 5838 5840 5841 5843 5845 5846 5848 5849 5851 5852 5854 5855 5856 5858 5859 5860 5861 5863 5864 5865 5866 5867 5868 5869 5870 5871 5872 5873 5874 5875 5876 5877 5877 5878 5878 5878 5878 5879 5879 5879 5879
5832 5834 5835 5837 5839 5841 5842 5844 5846 5847 5849 5850 5852 5854 5855 5856 5858 5859 5860 5862 5863 5864 5865 5866 5867 5868 5869 5870 5871 5872 5874 5875 5876 5876 5877 5877 5878 5878 5878 5878 5879 5879 5879
5829 5830 5832 5834 5836 5838 5840 5842 5843 5845 5847 5848 5850 5852 5853 5855 5856 5858 5859 5860 5862 5863 5864 5865 5866 5867 5868 5869 5870 5872 5873 5874 5875 5875 5876 5877 5877 5877 5878 5878 5878 5878 5878
5825 5827 5829 5831 5833 5835 5837 5839 5840 5842 5844 5846 5848 5849 5851 5853 5854 5856 5857 5859 5860 5861 5862 5863 5865 5866 5867 5868 5869 5870 5872 5873 5874 5874 5875 5876 5876 5877 5877 5877 5878 5878 5878
5820 5822 5825 5827 5829 5831 5833 5835 5837 5839 5841 5843 5845 5847 5849 5851 5852 5854 5855 5857 5858 5859 5860 5862 5863 5864 5866 5867 5868 5869 5870 5871 5872 5873 5874 5875 5875 5876 5876 5876 5877 5877 5877
5816 5818 5820 5822 5825 5827 5829 5831 5833 5836 5838 5840 5842 5844 5846 5848 5849 5851 5853 5854 5856 5857 5858 5860 5861 5862 5864 5865 5866 5867 5868 5869 5871 5872 5872 5873 5874 5874 5875 5875 5875 5875 5876
5811 5813 5816 5818 5820 5822 5825 5827 5829 5831 5834 5836 5838 5840 5842 5844 5846 5848 5850 5851 5853 5855 5856 5857 5859 5860 5861 5863 5864 5865 5866 5867 5869 5870 5870 5871 5872 5872 5873 5873 5873 5874 5874
5806 5808 5811 5813 5815 5818 5820 5822 5825 5827 5829 5832 5834 5836 5838 5841 5843 5845 5846 5848 5850 5852 5853 5855 5856 5858 5859 5860 5861 5863 5864 5865 5866 5867 5868 5869 5870 5870 5871 5871 5871 5872 5872
5800 5803 5805 5808 5810 5813 5815 5817 5820 5822 5825 5827 5829 5832 5834 5836 5839 5841 5843 5844 5846 5848 5850 5852 5853 5855 5856 5857 5859 5860 5861 5862 5863 5864 5865 5866 5867 5868 5868 5868 5869 5869 5869
5795 5797 5800 5802 5805 5807 5810 5812 5815 5817 5820 5822 5825 5827 5829 5832 5834 5836 5838 5840 5842 5844 5846 5848 5849 5851 5853 5854 5855 5857 5858 5859 5860 5861 5862 5863 5864 5864 5865 5866 5866 5866 5866
5789 5791 5794 5796 5799 5801 5804 5807 5809 5812 5815 5817 5819 5822 5824 5827 5829 5831 5834 5836 5838 5840 5842 5843 5845 5847 5849 5850 5852 5853 5854 5856 5857 5858 5859 5859 5860 5861 5862 5862 5862 5863 5863
5782 5785 5788 5790 5793 5795 5798 5801 5803 5806 5809 5811 5814 5816 5819 5821 5824 5826 5829 5831 5833 5835 5837 5839 5841 5843 5844 5846 5848 5849 5850 5851 5853 5854 5855 5856 5856 5857 5858 5858 5859 5859 5859
5775 5778 5781 5784 5786 5789 5792 5794 5797 5800 5802 5805 5808 5811 5813 5816 5818 5821 5823 5826 5828 5830 5832 5834 5836 5838 5840 5841 5843 5844 5846 5847 5848 5849 5850 5851 5852 5853 5853 5854 5854 5854 5855
5768 5771 5774 5777 5780 5782 5785 5788 5790 5793 5796 5799 5801 5804 5807 5810 5813 5815 5818 5820 5823 5825 5827 5829 5831 5833 5834 5836 5838 5839 5841 5842 5843 5844 5845 5846 5847 5848 5848 5849 5849 5850 5850
5761 5763 5767 5770 5773 5775 5778 5781 5783 5786 5789 5792 5795 5798 5801 5804 5806 5809 5812 5815 5817 5819 5821 5823 5825 5827 5829 5831 5832 5834 5835 5837 5838 5839 5840 5841 5842 5843 5843 5844 5844 5844 5844
5753 5756 5759 5762 5765 5768 5771 5774 5776 5779 5782 5785 5788 5791 5794 5797 5800 5803 5806 5808 5811 5813 5815 5817 5819 5821 5823 5825 5827 5828 5830 5831 5832 5833 5834 5835 5836 5837 5837 5838 5838 5838 5838
5745 5748 5751 5755 5758 5761 5763 5766 5769 5772 5775 5778 5781 5784 5787 5790 5793 5796 5799 5802 5805 5807 5809 5811 5813 5815 5817 5819 5821 5822 5824 5825 5826 5827 5828 5829 5830 5831 5831 5832 5832 5832 5832
5737 5740 5743 5746 5750 5753 5756 5759 5762 5765 5768 5771 5774 5777 5780 5783 5787 5789 5793 5795 5798 5800 5803 5805 5807 5809 5811 5813 5815 5816 5818 5819 5820 5821 5822 5823 5824 5824 5825 5825 5825 5825 5825
5728 5731 5735 5738 5741 5745 5748 5751 5754 5757 5760 5764 5767 5770 5773 5776 5779 5782 5785 5788 5791 5794 5796 5798 5800 5802 5804 5806 5808 5810 5811 5812 5813 5815 5816 5816 5817 5817 5818 5818 5818 5818 5818
5719 5723 5726 5730 5733 5736 5740 5743 5746 5750 5753 5756 5760 5763 5766 5769 5772 5775 5778 5781 5784 5786 5789 5791 5793 5795 5797 5799 5801 5802 5804 5805 5806 5807 5808 5809 5810 5810 5811 5811 5811 5811 5811
5710 5714 5718 5721 5724 5728 5732 5735 5738 5741 5744 5748 5752 5755 5758 5761 5764 5768 5770 5773 5776 5778 5781 5783 5785 5787 5789 5791 5793 5795 5796 5798 5799 5800 5800 5801 5802 5802 5803 5803 5803 5803 5803
5700 5704 5708 5712 5716 5719 5723 5726 5730 5733 5736 5740 5744 5748 5751 5753 5756 5759 5762 5765 5768 5770 5773 5775 5777 5779 5781 5783 5784 5786 5788 5790 5791 5792 5792 5793 5794 5794 5795 5795 5795 5795 5794
5690 5694 5698 5702 5706 5710 5714 5717 5721 5725 5729 5732 5735 5739 5742 5745 5748 5751 5753 5756 5759 5762 5764 5766 5769 5771 5773 5774 5776 5778 5779 5781 5782 5783 5784 5785 5785 5786 5786 5786 5786 5786 5786
5679 5684 5688 5692 5696 5701 5705 5708 5712 5716 5720 5723 5726 5730 5733 5736 5739 5742 5745 5748 5750 5753 5755 5758 5760 5762 5764 5766 5768 5769 5770 5772 5773 5774 5775 5776 5776 5777 5777 5777 5777 5777 5776
5668 5673 5678 5682 5687 5691 5695 5699 5703 5707 5711 5714 5717 5721 5724 5727 5730 5733 5736 5739 5741 5744 5747 5749 5751 5753 5755 5757 5759 5760 5761 5763 5764 5765 5766 5767 5767 5767 5767 5767 5767 5767 5767